Regional Weather Roundup
Issued by NWS

Home | Current Version | Previous Version | Text Only | Print | Product List | Glossary Off
Versions: 1 2 3 4 5 6 7 8 9 10 11 12 13 14 15 16 17 18 19 20 21 22 23 24 25 26 27 28 29 30 31 32 33 34 35 36 37 38 39 40 41 42 43 44 45 46 47 48 49 50

342
ASUS44 KLIX 280010
RWRLA
LOUISIANA WEATHER ROUNDUP
NATIONAL WEATHER SERVICE NEW ORLEANS LA
700 PM CDT WED AUG 27 2014

NOTE: "FAIR" INDICATES FEW OR NO CLOUDS BELOW 12,000 FEET WITH NO
      SIGNIFICANT WEATHER AND/OR OBSTRUCTIONS TO VISIBILITY.
      SKY/WX - SKY CONDITION AND SIGNIFICANT WEATHER.
      TMP - AIR TEMPERATURE.    DP   - DEWPOINT TEMPERATURE.
      RH  - RELATIVE HUMIDITY.  PRES - PRESSURE.
      HX  - HEAT INDEX.         WCI  - WIND CHILL INDEX.

*  THESE STATIONS ARE NOT NWS OR FAA STATIONS AND ARE NOT UNDER
   NWS QUALITY CONTROL.

LAZ040-048-061>063-065-066-069-280100-
SOUTHEAST LOUISIANA

CITY           SKY/WX    TMP DP  RH WIND       PRES   REMARKS
N.O. AUDUBON     N/A     85  78  81 MISG        N/A  HX  96
6HR MIN TEMP:  82; 6HR MAX TEMP:  90;

N.O. INTL ARPT MOCLDY    85  74  69 SE7       29.98R
6HR MIN TEMP:  85; 6HR MAX TEMP:  91;

N.O. LAKEFRONT CLOUDY    85  74  69 SE10      29.98R
6HR MIN TEMP:  85; 6HR MAX TEMP:  88; 6HR PCP: TRACE;

N.O. DOWNTOWN* CLOUDY    84  73  70 SE5       29.98R
6HR MIN TEMP:  84; 6HR MAX TEMP:  88;

SLIDELL        CLOUDY    82  77  84 CALM      29.98R
6HR MIN TEMP:  78; 6HR MAX TEMP:  92; 6HR PCP:  0.18;

BATON ROUGE    MOCLDY    85  73  67 S8        29.97R
6HR MIN TEMP:  85; 6HR MAX TEMP:  93;

BOOTHVILLE     PTCLDY    84  76  76 SE8       29.98R
6HR MIN TEMP:  84; 6HR MAX TEMP:  89;

BELLE CHASSE   MOCLDY    83  75  77 SE7       29.97R
6HR MIN TEMP:  75; 6HR MAX TEMP:  84;

BOGALUSA*      CLOUDY    82  75  78 NW3       30.00R
6HR MIN TEMP:  80; 6HR MAX TEMP:  96; 6HR PCP:  0.69;

GALLIANO*      NOT AVBL
NEW ROADS*     FAIR      87  73  62 SE5       29.97S
6HR MIN TEMP:  87; 6HR MAX TEMP:  91;

GONZALES*      FAIR      82  77  82 CALM      29.97S
6HR MIN TEMP:  82; 6HR MAX TEMP:  92;

HAMMOND*       MOCLDY    86  73  66 SE7       30.00R
HOUMA*         PTCLDY   N/A N/A N/A NE5       29.97
PORT FOURCHON* PTCLDY    82  73  74 E10G16    29.98S

$$

LAZ041-044-053-054-280100-
SOUTHWEST LOUISIANA

CITY           SKY/WX    TMP DP  RH WIND       PRES   REMARKS
LAKE CHARLES   MOCLDY    86  74  67 SE7       29.95S
6HR MIN TEMP:  84; 6HR MAX TEMP:  90; 6HR PCP:  0.02;

LAFAYETTE      MOCLDY    81  74  79 SE5       29.97F
6HR MIN TEMP:  81; 6HR MAX TEMP:  91;

PATTERSON      CLOUDY    82  75  78 E6        30.00S
6HR MIN TEMP:  82; 6HR MAX TEMP:  90;

SALT POINT       N/A     86  77  74 VRB3      29.96S HX  97
6HR MIN TEMP:  86; 6HR MAX TEMP:  92;

NEW IBERIA     LGT RAIN  79  74  84 E5        29.98F
6HR MIN TEMP:  78; 6HR MAX TEMP:  91; 6HR PCP:  0.22;

CHENAULT AIRPK PTCLDY    84  73  70 SE3       29.97R

$$

LAZ027-028-280100-
CENTRAL LOUISIANA

CITY           SKY/WX    TMP DP  RH WIND       PRES   REMARKS
FORT POLK      MOCLDY    86  71  60 E6        29.97S
6HR MIN TEMP:  86; 6HR MAX TEMP:  93;

ALEXANDRIA INT PTCLDY    90  71  53 NE5       29.95S HX  96
6HR MIN TEMP:  89; 6HR MAX TEMP:  93;

ALEXANDRIA     CLEAR     87  76  69 CALM      29.97S HX  97
6HR MIN TEMP:  87; 6HR MAX TEMP:  95;


$$

LAZ001-002-280100-
NORTHWEST LOUISIANA

CITY           SKY/WX    TMP DP  RH WIND       PRES   REMARKS
SHREVEPORT     MOCLDY    89  63  41 E7        29.96S
6HR MIN TEMP:  89; 6HR MAX TEMP:  96;

BARKSDALE AFB  PTCLDY    86  65  49 E6        29.96F
6HR MIN TEMP:  86; 6HR MAX TEMP:  94;

DTN SHREVEPORT PTCLDY    88  65  46 CALM      29.96F
6HR MIN TEMP:  87; 6HR MAX TEMP:  94;


$$

LAZ014-016-280100-
NORTHEAST LOUISIANA

CITY           SKY/WX    TMP DP  RH WIND       PRES   REMARKS
MONROE         MOCLDY    88  70  55 CALM      29.98S
6HR MIN TEMP:  87; 6HR MAX TEMP:  96;

TALLULAH       CLEAR     89  68  49 NE5       29.97F
6HR MIN TEMP:  89; 6HR MAX TEMP:  95;


$$




USA.gov is the U.S. government's official web portal to all federal, state and local government web resources and services.